星链-11647 (STARLINK-11647)

导读 | 星芒AI

STARLINK-11647 是 SpaceX 星链计划中的一颗低轨通信卫星,属于第 5 批星链卫星群。该卫星于 2020 年 11 月发射,运行在约 550 公里的近地轨道,旨在为全球用户提供高速互联网服务。它采用先进的相控阵天线和激光通信技术,具备高带宽和低延迟特性。星链计划最终目标是部署数千颗卫星,构建覆盖全球的宽带网络,尤其服务于偏远地区。STARLINK-11647 在提升全球网络接入能力方面发挥着重要作用。

基本信息
目录编号:
63191
目录名称:
STARLINK-11647
国际标识:
2025-048J
轨道中心:
EARTH
卫星名称:
星链-11647
卫星全名:
星链-11647 (STARLINK-11647)
卫星状态:
在轨 (已飞行235 天)
发射日期:
2025-03-13 UTC
国别 :
美国 (US)
星等 :
--
轨道信息
数据来源 国际轨道数据
星历时间: 2025-11-02T19:10:53+0800
16小时前
查看轨道信息
半长轴: 6734.055km
偏心率: 0.0001276
轨道倾角: 43.000°
近地点辐角 243.906°
升交点赤经 6.624°
平近点角 116.168°
近地点: 355.06km
远地点: 356.78km
周期: 91.659分钟
每日圈数: 15.71042
详细信息
固有亮度:
5
最大亮度:
2.5
卫星平台:
Starlink V1.0
覆盖范围:
全球
运营商:
太空探索技术公司
运营商所在国:
美国
制造商(研发单位):
太空探索技术公司
制造商所在国:
美国
使用方式:
暂无
卫星简介
Starlink 计划是 SpaceX 推出的全球卫星互联网项目,通过发射低轨道卫星,为全球尤其是偏远地区提供高速、低延迟的互联网服务。自 2019 年起,Starlink 已部署数千颗卫星,旨在缩小全球数字鸿沟,推动互联网普及。该项目还为军事、航空等行业提供通信支持,带来广泛经济效益。
2D轨道图
3D轨道图
轨道高度分析图
轨道倾角分析图
轨道综合分析图
查看轨道综合分析图